Regional Weather Roundup
Issued by NWS Upton, NY

Current Version | Previous Version | Graphics & Text | Print | Product List | Glossary Off
Versions: 1 2 3 4 5 6 7 8 9 10 11 12 13 14 15 16 17 18 19 20 21 22 23 24 25 26 27 28 29 30 31 32 33 34 35 36 37 38 39 40 41 42 43 44 45 46 47 48 49 50

102
ASUS41 KOKX 232308
RWROKX

REGIONAL WEATHER ROUNDUP
NATIONAL WEATHER SERVICE NEW YORK NY
600 PM EST MON JAN 23 2017

NOTE: "FAIR" INDICATES FEW OR NO CLOUDS BELOW 12,000 FEET WITH NO
SIGNIFICANT WEATHER AND/OR OBSTRUCTIONS TO VISIBILITY.

NYZ071-072-176-178-NJZ106-104-240000-
NEW YORK CITY METRO AREA

CITY           SKY/WX    TMP DP  RH WIND       PRES   REMARKS
Central Park   RAIN      37  34  89 E10G26    29.68R FOG     WCI  30
Wall St Helipt RAIN      39  36  89 NE21G32   29.66R FOG     WCI  29
LaGuardia APRT RAIN      39  34  82 NE25G37   29.67R WCI  28
Kennedy INTL   RAIN      39  35  86 NE21G32   29.67R FOG     WCI  29
Breezy Point     N/A     37 N/A N/A NE20G30     N/A  WCI  27
Newark/Liberty SLEET     38  34  85 NE14G24   29.67R FOG     WCI  30
Teterboro      RAIN      38  34  85 NE13G21   29.67R FOG     WCI  30
$$

NYZ177-179-078>081-240000-
LONG ISLAND NEW YORK

CITY           SKY/WX    TMP DP  RH WIND       PRES   REMARKS
Jones Beach      N/A     37 N/A N/A NE28G35     N/A  WCI  25
Matinecock PT  NOT AVBL
Farmingdale    RAIN      38  34  85 NE17G33   29.64R FOG     WCI  28
MacArthur/ISP  RAIN      38  36  92 NE23G40   29.64R FOG     WCI  27
Shirley        RAIN      38  36  92 NE12G26   29.65S FOG     WCI  30
Westhampton    LGT RAIN  38  34  85 NE26G35   29.63F WCI  26
Southampton    NOT AVBL
Bridgehampton  NOT AVBL
East Hampton   LGT RAIN  37  35  92 NE22G35   29.65F WCI  26
Montauk          N/A     39  37  92 NE24G39   29.67F WCI  28
$$

NYZ052-065-067-240000-
HUDSON VALLEY

CITY           SKY/WX    TMP DP  RH WIND       PRES   REMARKS
White Plains   LGT RAIN  36  31  82 NE8G21    29.66S WCI  30
Newburgh       LGT RAIN  36  32  87 NE17G25   29.74S WCI  25
Montgomery     LGT RAIN  36  29  75 NE15G26   29.72R WCI  27
Poughkeepsie   CLOUDY    35  29  78 N13G22    29.75S WCI  26
Albany         CLOUDY    35  24  64 NE12      29.87F WCI  27
$$

NJZ001-105-106-008-010-013-015-019>022-104-240000-
NEW JERSEY

CITY           SKY/WX    TMP DP  RH WIND       PRES   REMARKS
Newark/Liberty SLEET     38  34  85 NE14G24   29.67R FOG     WCI  30
Teterboro      RAIN      38  34  85 NE13G21   29.67R FOG     WCI  30
Caldwell       RAIN      37  32  82 NE10      29.68R WCI  30
Somerville     LGT RAIN  37  33  85 NE8G20    29.63R WCI  31
Linden         LGT RAIN  38  34  85 E21G29    29.65S WCI  28
Sussex         LGT RAIN  35  31  85 NE16G29   29.68S WCI  25
Andover          N/A     34  32  92 NE9       29.66R WCI  27
Trenton        HVY RAIN  37  34  89 NE25G37   29.57F FOG     WCI  25
Millville      CLOUDY    42  41  96 NE25G37   29.48R
Atlantic City  CLOUDY    43  40  89 NE26G43   29.48F
Wrightstown    LGT RAIN  38  36  93 NE24G31   29.54S WCI  26
Toms River     LGT RAIN  39  38  96 NE20G37   29.59R FOG     WCI  29
Belmar         RAIN      38  36  92 NE25G39   29.59S FOG     WCI  27
$$

PAZ047>061-062-071-240000-
EASTERN PENNSYLVANIA

CITY           SKY/WX    TMP DP  RH WIND       PRES   REMARKS
Philadelphia   CLOUDY    38  35  89 NE14G22   29.59R WCI  30
Allentown      HVY RAIN  36  31  82 NE22G31   29.60F WCI  25
Scranton       FRZ RAIN  34  31  88 NE13G20   29.64R FOG     WCI  25
$$

CTZ002-004>006-009-010-012-RIZ004-006-007-MAZ004-011-015-240000-
SOUTHERN NEW ENGLAND
 IN CT

CITY           SKY/WX    TMP DP  RH WIND       PRES   REMARKS
Bradley INTL   CLOUDY    36  29  75 NE18G24   29.81F WCI  26
Hartford       CLOUDY    38  30  73 NE16G25   29.78F WCI  29
Danbury        LGT RAIN  36  29  75 NE15G25   29.71S WCI  27
Wtrbury/Oxford   N/A     36  27  69 E16G28    29.69F WCI  26
Bridgeport     LGT RAIN  41  31  67 NE20G36   29.68F
Meriden        CLOUDY    39  29  67 NE14G30   29.74F WCI  31
New Haven      CLOUDY    39  30  70 NE15G32   29.69F WCI  31
Chester        MIX PCPN  37  30  75 NE17G29   29.69F WCI  28
Groton         LGT RAIN  38  33  82 NE30G40   29.70F WCI  26
Wilimantic     CLOUDY    38  32  79 NE21G33   29.77F WCI  28

 IN RI

CITY           SKY/WX    TMP DP  RH WIND       PRES   REMARKS
Providence     CLOUDY    38  30  73 NE21G35   29.82F WCI  28
Block Island   NOT AVBL
Westerly       LGT RAIN  39  31  72 NE22G33   29.73F WCI  29
 IN MA

CITY           SKY/WX    TMP DP  RH WIND       PRES   REMARKS
Boston         CLOUDY    38  33  82 E30G37    29.92F WCI  26
Worcester      LGT SNOW  30  28  92 NE20G30   29.81F FOG     WCI  17
Westfield      CLOUDY    35  28  75 NE15G23   29.83F WCI  25
Provincetown   CLOUDY    39  33  79 E30G39    29.88F WCI  27
Nantucket      CLOUDY    41  38  89 E26G39    29.75F FOG
$$

ANZ330-335-338-340-345-350-353-355-240000-
COASTAL MARINE OBSERVATIONS


STATION/POSITION TIME  SKY/WX   TEMP    WIND        PRES    VSBY  WAVE
                                AIR SEA DIR/SP/G                  HT/PER
                 (UTC)          (F)     (DEG/KT/KT) (MB)    (MI)  (FT/S)
NY HARB ENTRANCE 2150            40 42   50/ 31/ 39 1001.0         14/11
20 S FIRE ISLAND 2250            42 45   60/ 35/ 45  999.5         18/10
GREAT SOUTH BAY  NOT AVBL
23 SSW MONTAUK P 2150            41 46   60/ 37/ 49 1002.6         16/10
15 E BARNEGAT LI 2230               47                N/A          22/10
HUDSON CANYON    2150            49 51               995.5         18/11
KINGS POINT      2230            38 39              1003.9
EXECUTION ROCKS  2245            39      50/ 23/ 31   N/A
CENTRAL LI SOUND 2215            40      70/ 25/ 33   N/A           6/ 6
EASTERN LI SOUND NOT AVBL
ROBBINS REEF     2230            38      50/ 28/ 36 1003.7
$$


>>>>>>>>>>>>>>>>>>>>>>>>>>>> KEY <<<<<<<<<<<<<<<<<<<<<<<<<<<
>                                                          <
>     SKY/WX - Sky Condition/Present Weather               <
>     TMP    - Temperature in Fahrenheit                   <
>     DP     - Dew Point in Fahrenheit                     <
>     RH     - Relative Humidity in Percent                <
>     WIND   - Direction (from) and Speed in MPH           <
>     PRES   - Mean Sea Level Pressure (inches of Hg)      <
>     WCI    - Wind Chill Index                            <
>     VSB    - VISIBILITY IN MILES                         <
>     HX     - HEAT INDEX                                  <
>     TC     - TEMPERATURE IN CELSIUS                      <
>     VRB    - VARIABLE WIND DIRECTION                     <
>                                                          <
>>>>>>>>>>>>>>>>>>>>>>>>>>>> KEY <<<<<<<<<<<<<<<<<<<<<<<<<<<




USA.gov is the U.S. government's official web portal to all federal, state and local government web resources and services.